Amateur Radio Satellites - All Passes

Search period start: 21 May 2013 22:43
Search period end: 22 May 2013 22:43
Location: Blackfoot, 53.5367°N, 112.7800°W

Satellite Date Start Highest point End Downlink Frequencies (MHz)
Time Altitude Azimuth
RS-15 21 May 22:47:05 22:58:12 49° 7° (N) 23:08:50 29.354 - 29.394 USB, Beacon 29.352 USB
HO-68 21 May 23:08:21 23:14:42 34° 266° (W) 23:21:06 435.675 MHz FM
OPAL 21 May 23:11:18 23:16:22 53° 257° (WSW) 23:21:26 ?
KITSAT 1 21 May 23:39:46 23:46:54 37° 112° (ESE) 23:54:05 435.175 FM
Oscar 11 21 May 23:41:15 23:44:16 18° 271° (W) 23:47:18 145.825 FM, Beacon 2401.500 USB
JAS-2 22 May 00:00:29 00:06:51 27° 274° (W) 00:13:15 435.800 - 435.900 CW/SSB, 435.910 FM
AO-40 22 May 00:22:40 02:54:12 33° 189° (S) 08:36:00 Beacon 2401.320
RS-15 22 May 01:01:02 01:12:27 75° 39° (NE) 01:23:23 29.354 - 29.394 USB, Beacon 29.352 USB
KITSAT 1 22 May 01:33:40 01:41:46 77° 315° (NW) 01:49:57 435.175 FM
MaSat-1 22 May 02:19:23 02:25:05 30° 111° (ESE) 02:29:54 437.345 MHz
Uribyol 2 22 May 02:27:21 02:31:07 20° 88° (E) 02:34:52 436.500 FM
Oscar 19 22 May 02:32:08 02:36:17 24° 90° (E) 02:40:24 437.125 CW, 437.150 USB
Oscar 16 22 May 03:10:52 03:15:58 52° 100° (E) 03:21:00 437.025 USB, Beacon 2401.1428
RS-15 22 May 03:13:55 03:24:16 47° 246° (WSW) 03:34:21 29.354 - 29.394 USB, Beacon 29.352 USB
AO-27 22 May 03:17:53 03:22:55 45° 99° (E) 03:27:56 436.795 MHz FM
ITAMSAT 1 22 May 03:24:44 03:29:50 50° 100° (E) 03:34:54 435.822 SSB
KITSAT 1 22 May 03:30:54 03:38:24 39° 342° (NNW) 03:45:57 435.175 FM
Gurwin Techsat 1B 22 May 03:39:24 03:41:33 12° 82° (E) 03:43:42 435.225 FM
ISS 22 May 03:43:58 03:44:15 10° 138° (SE) 03:44:31 145.800 FM
MaSat-1 22 May 04:00:24 04:07:03 73° 307° (NW) 04:12:19 437.345 MHz
Uribyol 2 22 May 04:05:59 04:11:15 80° 288° (WNW) 04:16:29 436.500 FM
Oscar 19 22 May 04:10:58 04:16:07 65° 291° (WNW) 04:21:13 437.125 CW, 437.150 USB
Uosat F 22 May 04:13:16 04:17:24 25° 92° (E) 04:21:31 435.120 FM
AO-Echo 22 May 04:20:51 04:25:31 57° 101° (E) 04:30:14 ?
STRAND 1 22 May 04:47:21 04:49:53 14° 47° (NE) 04:52:25 ?
Oscar 16 22 May 04:50:36 04:55:09 32° 300° (WNW) 04:59:40 437.025 USB, Beacon 2401.1428
TMSAT-1 22 May 04:56:05 05:00:55 34° 95° (E) 05:05:43 436.925 FM
AO-27 22 May 04:57:39 05:02:24 36° 299° (WNW) 05:07:07 436.795 MHz FM
ITAMSAT 1 22 May 05:04:34 05:09:12 33° 300° (WNW) 05:13:50 435.822 SSB
ISS 22 May 05:17:09 05:20:13 34° 157° (SSE) 05:23:18 145.800 FM
Gurwin Techsat 1B 22 May 05:17:16 05:22:36 67° 103° (ESE) 05:27:53 435.225 FM
KITSAT 1 22 May 05:28:37 05:35:59 36° 11° (N) 05:43:22 435.175 FM
RS-15 22 May 05:31:04 05:33:16 11° 272° (W) 05:35:29 29.354 - 29.394 USB, Beacon 29.352 USB
MaSat-1 22 May 05:45:05 05:49:52 24° 326° (NW) 05:53:52 437.345 MHz
Uribyol 2 22 May 05:46:33 05:50:02 18° 309° (NW) 05:53:30 436.500 FM
Uosat F 22 May 05:51:38 05:56:36 60° 292° (WNW) 06:01:32 435.120 FM
Oscar 19 22 May 05:51:42 05:54:36 15° 311° (NW) 05:57:29 437.125 CW, 437.150 USB
AO-Echo 22 May 06:00:13 06:04:05 26° 301° (WNW) 06:07:58 ?
AO-7 22 May 06:00:31 06:08:20 41° 97° (E) 06:16:05 29.400 - 29.500 MHz
STRAND 1 22 May 06:23:08 06:28:08 59° 68° (ENE) 06:33:11 ?
TMSAT-1 22 May 06:35:57 06:41:03 47° 295° (WNW) 06:46:07 436.925 FM
Saudisat 1A 22 May 06:37:40 06:41:32 27° 119° (ESE) 06:45:25 436.775 MHz
ISS 22 May 06:53:21 06:56:40 63° 177° (S) 07:00:00 145.800 FM
Gurwin Techsat 1B 22 May 06:57:51 07:02:13 26° 303° (WNW) 07:06:34 435.225 FM
Oscar 10/S400 22 May 07:11:26 10:40:13 45° 235° (SW) 17:02:41 145.825 - 145.975 CW/USB, Beacon 145.810 USB
KITSAT 1 22 May 07:24:54 07:32:59 62° 38° (NE) 07:41:03 435.175 FM
MaSat-1 22 May 07:31:46 07:33:41 12° 350° (N) 07:35:27 437.345 MHz
Uosat F 22 May 07:32:02 07:34:29 14° 313° (NW) 07:36:57 435.120 FM
JAS-1B 22 May 07:43:47 07:46:29 13° 78° (ENE) 07:49:05 435.800 - 435.900 CW/SSB
PCSat 22 May 07:47:34 07:51:37 22° 109° (ESE) 07:55:41 145.825 MHz
Hamsat 22 May 07:48:51 07:52:21 23° 91° (E) 07:55:50 145.90 MHz
AO-7 22 May 07:53:20 08:01:35 64° 299° (WNW) 08:09:48 29.400 - 29.500 MHz
STRAND 1 22 May 08:03:31 08:07:44 26° 268° (W) 08:11:59 ?
Saudisat 1A 22 May 08:16:22 08:20:57 66° 319° (NW) 08:25:34 436.775 MHz
TMSAT-1 22 May 08:17:57 08:19:49 12° 316° (NW) 08:21:41 436.925 FM
Sapphire 22 May 08:19:27 08:24:18 34° 115° (ESE) 08:29:10 437.095 MHz 1200 baud AX-25 AFSK
ISS 22 May 08:29:58 08:33:12 45° 197° (SSW) 08:36:26 145.800 FM
SO-67 22 May 08:51:30 08:54:45 31° 96° (E) 08:57:58 435.3500 MHz FM
MaSat-1 22 May 09:15:41 09:17:51 13° 16° (NNE) 09:19:47 437.345 MHz
JAS-2 22 May 09:20:01 09:21:50 11° 73° (ENE) 09:23:36 435.800 - 435.900 CW/SSB, 435.910 FM
KITSAT 1 22 May 09:20:36 09:28:22 51° 242° (WSW) 09:36:05 435.175 FM
Hamsat 22 May 09:24:29 09:28:43 52° 291° (WNW) 09:32:57 145.90 MHz
PCSat 22 May 09:29:01 09:34:27 85° 310° (NW) 09:39:56 145.825 MHz
JAS-1B 22 May 09:32:23 09:38:48 70° 103° (ESE) 09:44:30 435.800 - 435.900 CW/SSB
SO-50 22 May 09:38:41 09:42:49 30° 120° (ESE) 09:46:55 436.795 FM
AO-7 22 May 09:46:46 09:53:00 24° 323° (NW) 09:59:15 29.400 - 29.500 MHz
Saudisat 1A 22 May 09:57:33 10:01:26 26° 342° (NNW) 10:05:18 436.775 MHz
Sapphire 22 May 10:02:11 10:07:32 59° 316° (NW) 10:12:56 437.095 MHz 1200 baud AX-25 AFSK
ISS 22 May 10:07:14 10:09:22 16° 216° (SW) 10:11:30 145.800 FM
SO-67 22 May 10:25:05 10:28:10 27° 295° (WNW) 10:31:15 435.3500 MHz FM
HO-68 22 May 10:27:44 10:34:19 37° 95° (E) 10:40:51 435.675 MHz FM
MaSat-1 22 May 10:57:27 11:01:18 39° 44° (NE) 11:04:20 437.345 MHz
JAS-2 22 May 11:01:54 11:08:56 51° 97° (E) 11:15:07 435.800 - 435.900 CW/SSB, 435.910 FM
PCSat 22 May 11:13:53 11:18:37 29° 333° (NNW) 11:23:23 145.825 MHz
OPAL 22 May 11:15:15 11:19:19 24° 94° (E) 11:23:18 ?
SO-50 22 May 11:18:29 11:23:13 63° 320° (NW) 11:27:53 436.795 FM
KITSAT 1 22 May 11:18:54 11:21:50 12° 264° (W) 11:24:47 435.175 FM
Oscar 11 22 May 11:21:02 11:25:20 55° 101° (E) 11:29:38 145.825 FM, Beacon 2401.500 USB
JAS-1B 22 May 11:23:35 11:28:57 28° 309° (NW) 11:33:50 435.800 - 435.900 CW/SSB
Saudisat 1A 22 May 11:38:56 11:42:30 21° 6° (N) 11:46:02 436.775 MHz
AO-7 22 May 11:39:38 11:42:57 13° 350° (N) 11:46:17 29.400 - 29.500 MHz
Sapphire 22 May 11:47:40 11:52:03 24° 341° (NNW) 11:56:28 437.095 MHz 1200 baud AX-25 AFSK
HO-68 22 May 12:15:22 12:22:24 61° 297° (WNW) 12:29:25 435.675 MHz FM
Uribyol 2 22 May 12:15:37 12:17:53 13° 45° (NE) 12:20:10 436.500 FM
Oscar 19 22 May 12:19:04 12:21:50 15° 48° (NE) 12:24:36 437.125 CW, 437.150 USB
MaSat-1 22 May 12:40:10 12:43:00 21° 253° (WSW) 12:45:25 437.345 MHz
UOSAT-12 22 May 12:42:35 12:46:46 38° 123° (ESE) 12:51:00 437.025 FM, 437.400 FM
JAS-2 22 May 12:47:06 12:53:56 45° 300° (WNW) 13:00:01 435.800 - 435.900 CW/SSB, 435.910 FM
OPAL 22 May 12:53:39 12:58:39 63° 294° (WNW) 13:03:34 ?
Oscar 16 22 May 12:56:14 13:00:35 28° 58° (ENE) 13:04:57 437.025 USB, Beacon 2401.1428
Oscar 11 22 May 12:57:49 13:01:18 24° 300° (WNW) 13:04:47 145.825 FM, Beacon 2401.500 USB
PCSat 22 May 12:59:50 13:03:46 20° 359° (N) 13:07:42 145.825 MHz
SO-50 22 May 13:00:44 13:04:40 25° 343° (NNW) 13:08:33 436.795 FM
AO-27 22 May 13:04:33 13:08:44 26° 56° (ENE) 13:12:57 436.795 MHz FM
ITAMSAT 1 22 May 13:11:07 13:15:26 28° 58° (ENE) 13:19:47 435.822 SSB
Saudisat 1A 22 May 13:19:02 13:23:21 38° 30° (NNE) 13:27:36 436.775 MHz
AO-7 22 May 13:28:22 13:32:25 15° 18° (NNE) 13:36:29 29.400 - 29.500 MHz
Sapphire 22 May 13:33:21 13:37:20 20° 7° (N) 13:41:19 437.095 MHz 1200 baud AX-25 AFSK
Uribyol 2 22 May 13:51:18 13:56:20 53° 66° (ENE) 14:01:25 436.500 FM
Oscar 19 22 May 13:55:08 14:00:16 62° 69° (ENE) 14:05:25 437.125 CW, 437.150 USB
Uosat F 22 May 13:57:03 13:59:44 15° 48° (NE) 14:02:26 435.120 FM
AO-Echo 22 May 14:02:55 14:06:48 25° 59° (ENE) 14:10:40 ?
HO-68 22 May 14:03:58 14:08:52 20° 320° (NW) 14:13:46 435.675 MHz FM
UOSAT-12 22 May 14:22:28 14:26:54 50° 324° (NW) 14:31:22 437.025 FM, 437.400 FM
JAS-2 22 May 14:33:20 14:37:09 15° 324° (NW) 14:40:49 435.800 - 435.900 CW/SSB, 435.910 FM
OPAL 22 May 14:33:52 14:36:41 15° 315° (NW) 14:39:28 ?
Oscar 16 22 May 14:34:30 14:39:39 62° 258° (WSW) 14:44:51 437.025 USB, Beacon 2401.1428
AO-27 22 May 14:42:44 14:47:54 68° 257° (WSW) 14:53:06 436.795 MHz FM
SO-50 22 May 14:43:02 14:46:41 22° 7° (N) 14:50:16 436.795 FM
PCSat 22 May 14:44:19 14:48:57 28° 25° (NNE) 14:53:35 145.825 MHz
TMSAT-1 22 May 14:45:31 14:49:20 21° 53° (NE) 14:53:09 436.925 FM
ITAMSAT 1 22 May 14:49:32 14:54:39 62° 258° (WSW) 14:59:50 435.822 SSB
Saudisat 1A 22 May 14:58:47 15:03:18 58° 232° (SW) 15:07:44 436.775 MHz
Gurwin Techsat 1B 22 May 15:05:50 15:10:38 36° 61° (ENE) 15:15:27 435.225 FM
AO-7 22 May 15:15:46 15:22:44 31° 44° (NE) 15:29:43 29.400 - 29.500 MHz
Sapphire 22 May 15:17:22 15:22:20 35° 32° (NNE) 15:27:18 437.095 MHz 1200 baud AX-25 AFSK
Uribyol 2 22 May 15:31:37 15:36:07 29° 267° (W) 15:40:40 436.500 FM
Uosat F 22 May 15:32:45 15:37:41 65° 69° (ENE) 15:42:40 435.120 FM
Oscar 19 22 May 15:35:46 15:40:02 25° 269° (W) 15:44:20 437.125 CW, 437.150 USB
RS-15 22 May 15:36:54 15:44:18 19° 96° (E) 15:51:30 29.354 - 29.394 USB, Beacon 29.352 USB
AO-Echo 22 May 15:40:36 15:45:21 58° 259° (WSW) 15:50:03 ?
UOSAT-12 22 May 16:04:23 16:08:02 23° 348° (NNW) 16:11:42 437.025 FM, 437.400 FM
Oscar 16 22 May 16:18:45 16:20:08 11° 278° (W) 16:21:31 437.025 USB, Beacon 2401.1428
TMSAT-1 22 May 16:23:20 16:28:39 90° 268° (W) 16:34:00 436.925 FM
SO-50 22 May 16:24:01 16:28:25 41° 31° (NNE) 16:32:43 436.795 FM
AO-27 22 May 16:26:26 16:28:28 12° 277° (W) 16:30:30 436.795 MHz FM
PCSat 22 May 16:27:46 16:33:14 76° 48° (NE) 16:38:41 145.825 MHz
ITAMSAT 1 22 May 16:33:58 16:35:17 11° 278° (W) 16:36:36 435.822 SSB
Saudisat 1A 22 May 16:41:02 16:42:04 11° 252° (WSW) 16:43:06 436.775 MHz
Gurwin Techsat 1B 22 May 16:45:27 16:50:33 46° 262° (W) 16:55:41 435.225 FM
JAS-1B 22 May 16:49:33 16:51:52 12° 31° (NNE) 16:54:06 435.800 - 435.900 CW/SSB
Sapphire 22 May 17:00:49 17:06:15 74° 234° (SW) 17:11:40 437.095 MHz 1200 baud AX-25 AFSK
AO-7 22 May 17:06:20 17:14:40 87° 67° (ENE) 17:23:04 29.400 - 29.500 MHz
Uosat F 22 May 17:13:02 17:16:58 23° 269° (W) 17:20:55 435.120 FM
RS-15 22 May 17:42:41 17:54:20 62° 121° (ESE) 18:05:28 29.354 - 29.394 USB, Beacon 29.352 USB
UOSAT-12 22 May 17:45:57 17:49:36 23° 12° (NNE) 17:53:16 437.025 FM, 437.400 FM
SO-50 22 May 18:04:45 18:09:12 51° 233° (SW) 18:13:34 436.795 FM
TMSAT-1 22 May 18:05:56 18:09:22 17° 274° (W) 18:12:50 436.925 FM
PCSat 22 May 18:11:49 18:16:12 25° 249° (WSW) 18:20:34 145.825 MHz
STRAND 1 22 May 18:29:13 18:31:17 12° 83° (E) 18:33:21 ?
JAS-1B 22 May 18:33:09 18:40:30 33° 55° (NE) 18:46:53 435.800 - 435.900 CW/SSB
Sapphire 22 May 18:45:40 18:48:49 16° 255° (WSW) 18:51:57 437.095 MHz 1200 baud AX-25 AFSK
Hamsat 22 May 18:49:05 18:52:57 36° 66° (ENE) 18:56:53 145.90 MHz
AO-7 22 May 19:01:40 19:08:30 28° 270° (W) 19:15:25 29.400 - 29.500 MHz
HO-68 22 May 19:18:47 19:23:21 19° 38° (NE) 19:27:56 435.675 MHz FM
UOSAT-12 22 May 19:26:17 19:30:45 48° 35° (NE) 19:35:14 437.025 FM, 437.400 FM
SO-67 22 May 19:33:31 19:36:44 32° 67° (ENE) 19:39:58 435.3500 MHz FM
JAS-2 22 May 19:37:58 19:42:50 18° 40° (NE) 19:47:36 435.800 - 435.900 CW/SSB, 435.910 FM
RS-15 22 May 19:55:12 20:06:58 64° 329° (NNW) 20:18:13 29.354 - 29.394 USB, Beacon 29.352 USB
STRAND 1 22 May 20:06:20 20:11:29 69° 104° (ESE) 20:16:37 ?
JAS-1B 22 May 20:21:39 20:30:39 81° 254° (WSW) 20:38:11 435.800 - 435.900 CW/SSB
Hamsat 22 May 20:25:19 20:29:06 31° 265° (W) 20:32:56 145.90 MHz
Oscar 11 22 May 20:48:23 20:51:08 17° 55° (NE) 20:53:54 145.825 FM, Beacon 2401.500 USB
OPAL 22 May 20:59:23 21:03:01 20° 50° (NE) 21:06:39 ?
HO-68 22 May 21:02:47 21:09:41 55° 61° (ENE) 21:16:37 435.675 MHz FM
UOSAT-12 22 May 21:06:37 21:10:55 40° 236° (WSW) 21:15:13 437.025 FM, 437.400 FM
SO-67 22 May 21:07:13 21:10:15 26° 266° (W) 21:13:19 435.3500 MHz FM
JAS-2 22 May 21:18:48 21:26:17 51° 62° (ENE) 21:33:40 435.800 - 435.900 CW/SSB, 435.910 FM
STRAND 1 22 May 21:46:11 21:50:19 25° 304° (WNW) 21:54:26 ?
KITSAT 1 22 May 22:06:44 22:09:18 12° 95° (E) 22:11:52 435.175 FM
RS-15 22 May 22:10:31 22:21:38 48° 1° (N) 22:32:17 29.354 - 29.394 USB, Beacon 29.352 USB
JAS-1B 22 May 22:15:33 22:22:08 23° 273° (W) 22:28:03 435.800 - 435.900 CW/SSB
Oscar 11 22 May 22:22:29 22:26:49 85° 255° (WSW) 22:31:12 145.825 FM, Beacon 2401.500 USB

Developed and maintained by Chris Peat, Heavens-Above GmbH. Please read the updated FAQ before sending e-mail. Imprint. DLR
